Regional Weather Roundup
Issued by NWS Charleston, WV

Home | Current Version | Previous Version | Text Only | Print | Product List | Glossary Off
Versions: 1 2 3 4 5 6 7 8 9 10 11 12 13 14 15 16 17 18 19 20 21 22 23 24 25 26 27 28 29 30 31 32 33 34 35 36 37 38 39 40 41 42 43 44 45 46 47 48 49 50

426
ASUS41 KRLX 110310
RWRRLX
West Virginia Regional Weather Roundup
National Weather Service Charleston WV
1000 PM EST WED FEB 10 2016

Note: "fair" indicates few or no clouds below 12,000 feet with no
significant weather and/or obstructions to visibility.

WVZ003-110400-
Northern Panhandle of West Virginia

CITY           SKY/WX    TMP DP  RH WIND       PRES   REMARKS
WHEELING       MOCLDY    14   8  77 W16G22    29.94R WCI  -2
$$

WVZ009-110400-
Northwest West Virginia

CITY           SKY/WX    TMP DP  RH WIND       PRES   REMARKS
PARKERSBURG    CLOUDY    15   7  70 W17G26    30.09R WCI  -1
$$

WVZ006-110400-
Western West Virginia

CITY           SKY/WX    TMP DP  RH WIND       PRES   REMARKS
HUNTINGTON     FLURRIES  18   8  65 W6        30.11S WCI  10
$$

WVZ015-110400-
West Central West Virginia

CITY           SKY/WX    TMP DP  RH WIND       PRES   REMARKS
CHARLESTON     CLOUDY    18   5  57 W12G20    30.09R WCI   5
$$

WVZ022-031-110400-
North Central West Virginia

CITY           SKY/WX    TMP DP  RH WIND       PRES   REMARKS
CLARKSBURG     LGT SNOW  16  12  84 W12       29.98R FOG     WCI   3
MORGANTOWN     FLURRIES  16   7  67 W9        29.96R WCI   4
$$

WVZ025-035-042-045-110400-
Southern West Virginia

CITY           SKY/WX    TMP DP  RH WIND       PRES   REMARKS
BECKLEY        LGT SNOW  11   4  73 NW12G23   29.96R WCI  -3
LOGAN          FLURRIES  16   5  62 VRB5G13   30.05R WCI   9
BLUEFIELD      CLOUDY    10   1  67 W13G23    29.93R WCI  -5
LEWISBURG      CLOUDY    17   9  71 W6        29.93R WCI   8
$$

WVZ047-110400-
Northern Mountains of West Virginia

CITY           SKY/WX    TMP DP  RH WIND       PRES   REMARKS
ELKINS         LGT SNOW  14   6  70 W12G20    29.93R WCI   0
$$

WVZ052-110400-
Eastern Panhandle of West Virginia

CITY           SKY/WX    TMP DP  RH WIND       PRES   REMARKS
MARTINSBURG    CLOUDY    22   6  50 W14G26    29.92R WCI   9
PETERSBURG     LGT SNOW  20  13  73 CALM      29.97R
$$




USA.gov is the U.S. government's official web portal to all federal, state and local government web resources and services.